Back to catalog

TISAT 1

AliveCommunicationsPO
NORAD 36799·PAYLOAD·🇨🇭 Switzerland

Launched Jul 12, 2010 from Satish Dhawan Space Centre

Loading…

Next Passes (next 24 hours)

TLE

FreshSource: Space-Track

Epoch: Sep 14, 2026, 07:50 UTC

1 36799U 10035E   26257.32691780  .00017541  00000-0  51999-3 0  9995
2 36799  98.0776 212.0433 0000782  37.1630 322.9665 15.34920533881369

Track TISAT 1 in real time with AllMySat

Download on the App Store